This demonstration page uses our WeatherBlox Daily Observations layout. Learn more.

Left ArrowRight Arrow

40.92945, -100.16068

Hourly Observations for February 3, 2015

Temp ( °F °C ) Dew Point ( °F °C ) Humidity (%) Winds ( mph kmh ) Pressure ( in mb ) Visibility ( mi km ) Precip ( " mm )
12:15 am 00:15 Clear 21 -6 20 -6.7 95 95 Calm 30.21 1023 7 11 N/A
12:35 am 00:35 Clear 22 -5.7 20 -6.5 94 94 Calm 30.21 1023 7 11 N/A
12:55 am 00:55 Clear 22 -5.5 21 -6.2 95 95 S 3 6 30.21 1023 7 11 N/A
1:15 am 01:15 Clear 23 -5 22 -5.8 94 94 SSE 6 9 30.21 1023 7 11 N/A
1:35 am 01:35 Clear 24 -4.6 22 -5.4 94 94 SSE 6 9 30.15 1021 7 11 N/A
1:55 am 01:55 Clear 24 -4.7 22 -5.5 94 94 S 3 6 30.15 1021 7 11 N/A
2:15 am 02:15 Clear 23 -4.9 22 -5.6 95 95 SE 5 7 30.15 1021 7 11 N/A
2:35 am 02:35 Clear 23 -5.1 21 -5.9 94 94 SE 3 6 30.15 1021 7 11 N/A
2:55 am 02:55 Clear 24 -4.2 23 -5.1 94 94 ESE 6 9 30.15 1021 10 16 N/A
3:15 am 03:15 Clear 23 -5 21 -5.9 93 93 ESE 3 6 30.12 1020 10 16 N/A
3:35 am 03:35 Mostly Cloudy 22 -5.8 20 -6.6 94 94 ESE 5 7 30.15 1021 10 16 N/A
3:55 am 03:55 Mostly Cloudy 24 -4.6 22 -5.5 94 94 ESE 6 9 30.09 1019 10 16 N/A
4:15 am 04:15 Partly Cloudy 23 -4.9 22 -5.8 94 94 ESE 6 9 30.09 1019 7 11 N/A
4:35 am 04:35 Partly Cloudy 24 -4.6 22 -5.4 94 94 SE 6 9 30.06 1018 7 11 N/A
4:55 am 04:55 Partly Cloudy 24 -4.7 22 -5.5 94 94 SE 5 7 30.06 1018 7 11 N/A
5:15 am 05:15 Partly Cloudy 25 -3.8 24 -4.6 94 94 SE 6 9 30.06 1018 10 16 N/A
5:35 am 05:35 Partly Cloudy 26 -3.3 24 -4.5 92 92 ESE 7 11 30.00 1016 10 16 N/A
5:55 am 05:55 Clear 24 -4.3 22 -5.4 92 92 ESE 5 7 30.03 1017 10 16 N/A
6:15 am 06:15 Clear 30 -0.9 27 -2.7 88 88 SSE 13 20 30.00 1016 10 16 N/A
6:35 am 06:35 Clear 30 -1 27 -3 86 86 SSE 12 19 29.97 1015 10 16 N/A
6:55 am 06:55 Clear 29 -1.5 26 -3.5 86 86 SSE 7 11 29.97 1015 10 16 N/A
7:15 am 07:15 Clear 24 -4.3 22 -5.7 90 90 E 5 7 30.00 1016 10 16 N/A
7:35 am 07:35 Clear 27 -3 25 -4.1 92 92 E 7 11 29.97 1015 10 16 N/A
7:55 am 07:55 Sunny 32 -0.1 28 -2.5 84 84 SSE 3 6 29.94 1014 10 16 N/A
8:15 am 08:15 Partly Cloudy 31 -0.5 25 -3.8 79 79 NNE 9 15 29.94 1014 10 16 N/A
8:35 am 08:35 Sunny 27 -2.6 24 -4.7 86 86 N 8 13 29.97 1015 10 16 N/A
8:55 am 08:55 Sunny 27 -2.6 25 -4 90 90 N 6 9 29.97 1015 10 16 N/A
9:15 am 09:15 Sunny 28 -2.5 24 -4.3 88 88 Calm 29.97 1015 10 16 N/A
9:35 am 09:35 Sunny 29 -1.6 26 -3.4 88 88 Calm 29.97 1015 10 16 N/A
9:55 am 09:55 Sunny 31 -0.5 28 -2.4 87 87 Calm 29.94 1014 10 16 N/A
10:15 am 10:15 Sunny 33 0.6 30 -1.3 87 87 Calm 29.97 1015 10 16 N/A
10:35 am 10:35 Sunny 36 2.1 31 -0.5 83 83 WNW 5 7 29.97 1015 10 16 N/A
10:55 am 10:55 Sunny 37 2.7 31 -0.8 78 78 NW 3 6 29.94 1014 10 16 N/A
11:15 am 11:15 Sunny 39 4 31 -0.7 72 72 WNW 8 13 29.94 1014 10 16 N/A
11:35 am 11:35 Sunny 40 4.5 32 0 73 73 WNW 7 11 29.94 1014 10 16 N/A
11:55 am 11:55 Sunny 42 5.5 33 0.7 72 72 WNW 6 9 29.91 1013 10 16 N/A
12:15 pm 12:15 Sunny 43 6.2 35 1.4 72 72 WNW 8 13 29.91 1013 10 16 N/A
12:35 pm 12:35 Sunny 45 7.3 35 1.8 68 68 WNW 7 11 29.91 1013 10 16 N/A
12:55 pm 12:55 Sunny 47 8.4 36 2.3 66 66 WNW 8 13 29.91 1013 10 16 N/A
1:15 pm 13:15 Sunny 49 9.4 37 2.6 63 63 WNW 8 13 29.88 1012 10 16 N/A
1:35 pm 13:35 Sunny 50 9.9 37 2.7 61 61 WNW 5 7 29.88 1012 10 16 N/A
1:55 pm 13:55 Sunny 51 10.3 38 3.4 63 63 WNW 6 9 29.85 1011 10 16 N/A
2:15 pm 14:15 Sunny 51 10.7 37 3 59 59 WNW 7 11 29.85 1011 10 16 N/A
2:35 pm 14:35 Sunny 53 11.5 38 3.3 57 57 WNW 8 13 29.85 1011 10 16 N/A
2:55 pm 14:55 Sunny 53 11.6 38 3.6 58 58 WNW 7 11 29.85 1011 10 16 N/A
3:15 pm 15:15 Sunny 54 12 38 3.1 55 55 W 6 9 29.85 1011 10 16 N/A
3:35 pm 15:35 Sunny 54 12.2 38 3.1 54 54 WNW 6 9 29.85 1011 10 16 N/A
3:55 pm 15:55 Sunny 54 12.2 37 2.9 53 53 WNW 5 7 29.85 1011 10 16 N/A
4:15 pm 16:15 Sunny 54 12.2 38 3.3 55 55 WNW 5 7 29.85 1011 10 16 N/A
4:35 pm 16:35 Sunny 53 11.8 38 3.6 57 57 WNW 5 7 29.91 1013 10 16 N/A
4:55 pm 16:55 Sunny 53 11.6 38 3.5 58 58 Calm 29.91 1013 10 16 N/A
5:15 pm 17:15 Sunny 52 11.3 38 3.5 59 59 Calm 29.91 1013 10 16 N/A
5:35 pm 17:35 Sunny 49 9.4 37 2.8 64 64 Calm 29.88 1012 10 16 N/A
5:55 pm 17:55 Sunny 44 6.9 36 2 71 71 ENE 7 11 29.94 1014 10 16 N/A
6:15 pm 18:15 Clear 42 5.8 33 0.7 70 70 ENE 8 13 29.94 1014 10 16 N/A
6:35 pm 18:35 Clear 40 4.7 33 0.7 76 76 E 7 11 29.97 1015 10 16 N/A
6:55 pm 18:55 Clear 38 3.6 32 0 78 78 E 8 13 30.00 1016 10 16 N/A
7:15 pm 19:15 Clear 38 3.6 32 0.2 79 79 E 9 15 30.00 1016 10 16 N/A
7:35 pm 19:35 Partly Cloudy 39 4 32 0.2 77 77 ENE 9 15 30.00 1016 10 16 N/A
7:55 pm 19:55 Partly Cloudy 39 4 33 0.5 78 78 ENE 9 15 30.00 1016 10 16 N/A
8:15 pm 20:15 Partly Cloudy 39 4 33 0.6 79 79 NE 9 15 30.03 1017 10 16 N/A
8:35 pm 20:35 Mostly Cloudy 38 3.2 33 0.5 83 83 ENE 7 11 30.06 1018 10 16 N/A
8:55 pm 20:55 Cloudy 37 2.6 32 0.2 84 84 ENE 6 9 30.09 1019 10 16 N/A
9:15 pm 21:15 Mostly Cloudy 37 2.7 33 0.3 84 84 ENE 8 13 30.09 1019 10 16 N/A
9:35 pm 21:35 Partly Cloudy 37 2.5 32 0 84 84 ENE 8 13 30.06 1018 10 16 N/A
9:55 pm 21:55 Clear 36 2 32 0 87 87 ENE 7 11 30.09 1019 10 16 N/A
10:15 pm 22:15 Mostly Cloudy 35 1.8 32 -0.1 87 87 ENE 8 13 30.09 1019 10 16 N/A
10:35 pm 22:35 Mostly Cloudy 35 1.7 31 -0.5 86 86 NE 8 13 30.09 1019 10 16 N/A
10:55 pm 22:55 Partly Cloudy 35 1.5 30 -1 84 84 NE 12 19 30.12 1020 10 16 N/A
11:15 pm 23:15 Cloudy 34 1.1 30 -1 86 86 ENE 9 15 30.12 1020 10 16 N/A
11:35 pm 23:35 Cloudy 34 1 30 -1 87 87 NNE 5 7 30.12 1020 10 16 N/A
11:55 pm 23:55 Mostly Cloudy 33 0.5 29 -1.5 87 87 ENE 8 13 30.12 1020 10 16 N/A

Powered by AerisWeather